Weather History for PANC - March, 2013

Change the Weather History Date:

Thursday, March 21, 2013

  Actual Average Record
Temperature  
Mean Temperature 16 °F 28 °F  
Max Temperature 26 °F 35 °F 48 °F (1998)
Min Temperature 5 °F 20 °F -8 °F (1959)
Degree Days  
Heating Degree Days 49    
Month to date heating degree days 826  
Since 1 July heating degree days 8271  
Cooling Degree Days 0    
Month to date cooling degree days 0  
Year to date cooling degree days 0  
Moisture  
Dew Point 5 °F    
Average Humidity 63    
Maximum Humidity 83    
Minimum Humidity 42    
Precipitation  
Precipitation 0.00 in 0.01 in 0.17 in (1954)
Month to date precipitation 0.28 0.42  
Year to date precipitation 2.73 1.87  
Snow  
Snow 0.00 in 0.30 in 1.70 in (2009)
Month to date snowfall 5.3 7.1  
Since 1 July snowfall 61.4 67.4  
Snow Depth 17.00 in    
Sea Level Pressure  
Sea Level Pressure 30.13 in    
Wind  
Wind Speed 3 mph (ENE)    
Max Wind Speed 10 mph    
Max Gust Speed 20 mph    
Visibility 10 miles    
Events      
T = Trace of Precipitation, MM = Missing Value Source: NWS Daily Summary

Daily Weather History Graph

Daily Weather History Graph

Search for Another Location

Airport or City:

Trip Planner

Search our weather history database for the weather conditions in past years. The results will help you decide how hot, cold, wet, or windy it might be!

Date:

Astronomy

Mar. 21, 2013 Rise Set
Actual Time 7:56 AM AKDT 8:18 PM AKDT
Civil Twilight 7:13 AM AKDT 9:02 PM AKDT
Nautical Twilight 6:21 AM AKDT 9:54 PM AKDT
Astronomical Twilight 5:23 AM AKDT 10:53 PM AKDT
Moon 1:38 PM AKDT (3/21) 5:47 AM AKDT (3/21)
Length of Visible Light 13h 48m
Length of Day
12h 22m
Waxing Gibbous, 70% of the Moon is Illuminated
Mar 21
Waxing Gibbous
Mar 27
Full
Apr 2
Last Quarter
Apr 10
New
Apr 18
First Quarter

Hourly Weather History & Observations

Time (AKDT) Temp. Windchill Dew Point Humidity Pressure Visibility Wind Dir Wind Speed Gust Speed Precip Events Conditions
12:53 AM 12.0 °F - -0.9 °F 56% 29.99 in 10.0 mi Calm Calm - N/A   Clear
1:53 AM 10.0 °F - -0.0 °F 64% 30.01 in 10.0 mi Calm Calm - N/A   Clear
2:53 AM 9.0 °F - -0.0 °F 67% 30.04 in 10.0 mi Calm Calm - N/A   Clear
3:53 AM 9.0 °F 2.4 °F -0.0 °F 67% 30.06 in 10.0 mi East 3.5 mph - N/A   Clear
4:53 AM 5.0 °F - -0.9 °F 76% 30.07 in 10.0 mi Calm Calm - N/A   Partly Cloudy
5:53 AM 9.0 °F - 3.9 °F 80% 30.08 in 10.0 mi Calm Calm - N/A   Partly Cloudy
6:53 AM 9.0 °F 0.6 °F 3.0 °F 77% 30.09 in 10.0 mi East 4.6 mph - N/A   Clear
7:53 AM 7.0 °F 0.1 °F 1.9 °F 80% 30.12 in 10.0 mi SE 3.5 mph - N/A   Clear
8:53 AM 7.0 °F - 1.0 °F 77% 30.14 in 10.0 mi Calm Calm - N/A   Partly Cloudy
9:53 AM 12.0 °F 4.1 °F 3.0 °F 67% 30.16 in 10.0 mi ESE 4.6 mph - N/A   Scattered Clouds
10:53 AM 18.0 °F - 3.0 °F 52% 30.17 in 10.0 mi Calm Calm - N/A   Mostly Cloudy
11:53 AM 19.9 °F - 7.0 °F 57% 30.18 in 10.0 mi Calm Calm - N/A   Scattered Clouds
12:53 PM 21.0 °F 16.2 °F 10.9 °F 65% 30.20 in 10.0 mi NW 3.5 mph - N/A   Scattered Clouds
1:53 PM 21.9 °F 17.2 °F 12.0 °F 66% 30.20 in 10.0 mi NW 3.5 mph - N/A   Scattered Clouds
2:53 PM 25.0 °F 18.1 °F 10.0 °F 53% 30.19 in 10.0 mi NNW 5.8 mph - N/A   Mostly Cloudy
3:53 PM 25.0 °F 18.1 °F 9.0 °F 51% 30.18 in 10.0 mi ENE 5.8 mph - N/A   Mostly Cloudy
4:53 PM 25.0 °F 19.3 °F 6.1 °F 45% 30.19 in 10.0 mi ENE 4.6 mph - N/A   Overcast
5:53 PM 26.1 °F 19.4 °F 6.1 °F 43% 30.18 in 10.0 mi NE 5.8 mph - N/A   Overcast
6:53 PM 24.1 °F 17.0 °F 5.0 °F 44% 30.17 in 10.0 mi NE 5.8 mph - N/A   Overcast
7:53 PM 24.1 °F 18.2 °F 7.0 °F 48% 30.16 in 10.0 mi NE 4.6 mph - N/A   Overcast
8:53 PM 25.0 °F - 8.1 °F 49% 30.15 in 10.0 mi Calm Calm - N/A   Overcast
9:53 PM 25.0 °F - 6.1 °F 45% 30.14 in 10.0 mi Calm Calm - N/A   Overcast
10:53 PM 26.1 °F 16.2 °F 9.0 °F 49% 30.14 in 10.0 mi SE 10.4 mph 19.6 mph N/A   Overcast
11:53 PM 26.1 °F 20.5 °F 10.9 °F 53% 30.13 in 10.0 mi SE 4.6 mph - N/A   Overcast